This is the latest recevied weather packets stored in our database for station/object KW4UJ. If no packets are shown the sender has not sent any weather packets the latest 10 day(s).
| Time | Temp. | Humidity | Pressure | Rain* | Wind** | Luminosity | Snow |
|---|---|---|---|---|---|---|---|
| 1788308049 | 30° C | 74% | 1014.1 hPa | 0 mm | - | 0 W/m² | - |
| 1788307744 | 30° C | 73% | 1014.1 hPa | 0 mm | - | 0 W/m² | - |
| 1788307439 | 30° C | 73% | 1013.9 hPa | 0 mm | - | 0 W/m² | - |
| 1788307135 | 30° C | 72% | 1014 hPa | 0 mm | - | 0 W/m² | - |
| 1788306834 | 30° C | 72% | 1013.9 hPa | 0 mm | - | 0 W/m² | - |
| 1788306530 | 30.56° C | 71% | 1013.8 hPa | 0 mm | - | 1 W/m² | - |
| 1788306229 | 30.56° C | 71% | 1014 hPa | 0 mm | - | 1 W/m² | - |
| 1788305925 | 30.56° C | 70% | 1013.9 hPa | 0 mm | - | 3 W/m² | - |
| 1788305620 | 31.11° C | 69% | 1014 hPa | 0 mm | - | 7 W/m² | - |
| 1788305316 | 31.11° C | 68% | 1014 hPa | 0 mm | - | 11 W/m² | - |
| 1788305011 | 31.11° C | 68% | 1014.2 hPa | 0 mm | - | 18 W/m² | - |
| 1788304707 | 31.67° C | 67% | 1014 hPa | 0 mm | - | 24 W/m² | - |
| 1788304403 | 31.67° C | 68% | 1014.2 hPa | 0 mm | - | 28 W/m² | - |
| 1788304099 | 31.67° C | 66% | 1014.2 hPa | 0 mm | - | 35 W/m² | - |
| 1788303799 | 31.67° C | 66% | 1014.3 hPa | 0 mm | - | 39 W/m² | - |
| 1788303494 | 31.67° C | 65% | 1014.3 hPa | 0 mm | - | 48 W/m² | - |
| 1788303193 | 31.67° C | 66% | 1014.3 hPa | 0 mm | - | 46 W/m² | - |
| 1788302889 | 32.22° C | 65% | 1014.1 hPa | 0 mm | - | 41 W/m² | - |
| 1788302585 | 32.22° C | 65% | 1014.2 hPa | 0 mm | - | 39 W/m² | - |
| 1788302282 | 32.22° C | 64% | 1014 hPa | 0 mm | - | 42 W/m² | - |
| 1788301982 | 32.22° C | 65% | 1014.1 hPa | 0 mm | - | 52 W/m² | - |
| 1788301678 | 32.22° C | 64% | 1014.3 hPa | 0 mm | - | 60 W/m² | - |
| 1788301374 | 32.22° C | 63% | 1014.2 hPa | 0 mm | - | 65 W/m² | - |
| 1788301069 | 32.78° C | 62% | 1014.2 hPa | 0 mm | - | 61 W/m² | - |
| 1788300765 | 32.78° C | 62% | 1014.4 hPa | 0 mm | - | 64 W/m² | - |
* Rain latest hour (hover to see other rain measurements)
** Current wind speed in m/s (hover to see current wind gust speed)